Terminal Aerodrome Forecast
Issued by NWS

Home | Current Version | Previous Version | Text Only | Print | Product List | Glossary On
Versions: 1 2 3 4 5 6 7 8 9 10 11 12 13 14 15 16 17 18 19 20 21
000
FTUS45 KABQ 222344 RRA
TAFROW
TAF
KROW 222344Z 2300/2324 15014G22KT P6SM SKC
     FM230200 14015KT P6SM VCSH SCT050 BKN120
      TEMPO 2303/2306 2SM TSRA OVC020CB
     FM230600 16015KT P6SM VCTS SCT040CB BKN100
     FM230800 18010KT P6SM -RA BKN030
     FM231000 20010KT P6SM BKN025
     FM231500 21015KT P6SM SKC=

USA.gov is the U.S. government's official web portal to all federal, state and local government web resources and services.